Time,TemperatureF,DewpointF,PressureIn,WindDirection,WindDirectionDegrees,WindSpeedMPH,WindSpeedGustMPH,Humidity,HourlyPrecipIn,Conditions,Clouds,dailyrainin,SoftwareType,DateUTC
2013-02-09 00:00:00,25.1,22.0,30.12,SW,219,1.0,1.0,88,0.00,,,0.00,Wunderground v.1.15,2013-02-09 06:00:00,
2013-02-09 00:05:00,25.1,22.0,30.12,SW,228,0.0,1.0,88,0.00,,,0.00,Wunderground v.1.15,2013-02-09 06:05:00,
2013-02-09 00:10:00,25.1,22.3,30.12,SW,235,0.0,2.0,89,0.00,,,0.00,Wunderground v.1.15,2013-02-09 06:10:00,
2013-02-09 00:15:00,25.1,22.3,30.11,SW,228,1.0,4.0,89,0.00,,,0.00,Wunderground v.1.15,2013-02-09 06:15:00,
2013-02-09 00:21:00,25.1,22.3,30.12,WSW,249,1.0,1.0,89,0.00,,,0.00,Wunderground v.1.15,2013-02-09 06:21:00,
2013-02-09 00:26:00,25.1,22.3,30.12,SW,236,1.0,1.0,89,0.00,,,0.00,Wunderground v.1.15,2013-02-09 06:26:00,
2013-02-09 00:31:00,25.1,22.3,30.12,ESE,113,1.0,1.0,89,0.00,,,0.00,Wunderground v.1.15,2013-02-09 06:31:00,
2013-02-09 00:36:00,25.1,22.3,30.12,West,263,1.0,3.0,89,0.00,,,0.00,Wunderground v.1.15,2013-02-09 06:36:00,
2013-02-09 00:41:00,25.1,22.3,30.12,ENE,71,1.0,2.0,89,0.00,,,0.00,Wunderground v.1.15,2013-02-09 06:41:00,
2013-02-09 00:46:00,25.1,22.3,30.12,South,186,0.0,2.0,89,0.00,,,0.00,Wunderground v.1.15,2013-02-09 06:46:00,
2013-02-09 00:51:00,25.1,22.3,30.12,WNW,285,1.0,3.0,89,0.00,,,0.00,Wunderground v.1.15,2013-02-09 06:51:00,
2013-02-09 00:56:00,25.2,22.4,30.11,SE,132,1.0,3.0,89,0.00,,,0.00,Wunderground v.1.15,2013-02-09 06:56:00,
2013-02-09 01:01:00,25.2,22.4,30.11,South,184,1.0,1.0,89,0.00,,,0.00,Wunderground v.1.15,2013-02-09 07:01:00,
2013-02-09 01:06:00,25.2,22.4,30.11,WSW,238,0.0,1.0,89,0.00,,,0.00,Wunderground v.1.15,2013-02-09 07:06:00,
2013-02-09 01:11:00,25.2,22.4,30.11,South,186,1.0,1.0,89,0.00,,,0.00,Wunderground v.1.15,2013-02-09 07:11:00,
2013-02-09 01:17:00,25.3,22.5,30.11,WNW,302,1.0,1.0,89,0.00,,,0.00,Wunderground v.1.15,2013-02-09 07:17:00,
2013-02-09 01:22:00,25.3,22.5,30.10,SW,225,1.0,2.0,89,0.00,,,0.00,Wunderground v.1.15,2013-02-09 07:22:00,
2013-02-09 01:27:00,25.3,22.8,30.11,SW,232,1.0,2.0,90,0.00,,,0.00,Wunderground v.1.15,2013-02-09 07:27:00,
2013-02-09 01:32:00,25.3,22.8,30.11,SSE,153,1.0,2.0,90,0.00,,,0.00,Wunderground v.1.15,2013-02-09 07:32:00,
2013-02-09 01:37:00,25.3,22.8,30.10,North,8,0.0,2.0,90,0.00,,,0.00,Wunderground v.1.15,2013-02-09 07:37:00,
2013-02-09 01:42:00,25.4,22.9,30.10,East,79,1.0,1.0,90,0.00,,,0.00,Wunderground v.1.15,2013-02-09 07:42:00,
2013-02-09 01:48:00,25.4,22.9,30.10,WSW,243,1.0,2.0,90,0.00,,,0.00,Wunderground v.1.15,2013-02-09 07:48:00,
2013-02-09 01:53:00,25.4,22.9,30.09,West,267,1.0,3.0,90,0.00,,,0.00,Wunderground v.1.15,2013-02-09 07:53:00,
2013-02-09 01:58:00,25.4,22.9,30.10,SW,235,1.0,4.0,90,0.00,,,0.00,Wunderground v.1.15,2013-02-09 07:58:00,
2013-02-09 02:03:00,25.5,23.0,30.10,SE,143,1.0,4.0,90,0.00,,,0.00,Wunderground v.1.15,2013-02-09 08:03:00,
2013-02-09 02:08:00,25.5,23.0,30.09,SSW,193,1.0,4.0,90,0.00,,,0.00,Wunderground v.1.15,2013-02-09 08:08:00,
2013-02-09 02:14:00,25.6,23.1,30.10,West,260,1.0,2.0,90,0.00,,,0.00,Wunderground v.1.15,2013-02-09 08:14:00,
2013-02-09 02:19:00,25.7,23.2,30.10,South,174,1.0,3.0,90,0.00,,,0.00,Wunderground v.1.15,2013-02-09 08:19:00,
2013-02-09 02:24:00,25.7,23.2,30.09,SW,235,1.0,3.0,90,0.00,,,0.00,Wunderground v.1.15,2013-02-09 08:24:00,
2013-02-09 02:29:00,25.7,23.2,30.09,WSW,257,1.0,3.0,90,0.00,,,0.00,Wunderground v.1.15,2013-02-09 08:29:00,
2013-02-09 02:34:00,25.7,23.2,30.09,WSW,250,1.0,2.0,90,0.00,,,0.00,Wunderground v.1.15,2013-02-09 08:34:00,
2013-02-09 02:40:00,25.7,23.2,30.09,ESE,110,1.0,2.0,90,0.00,,,0.00,Wunderground v.1.15,2013-02-09 08:40:00,
2013-02-09 02:45:00,25.7,23.2,30.08,SSE,151,1.0,2.0,90,0.00,,,0.00,Wunderground v.1.15,2013-02-09 08:45:00,
2013-02-09 02:50:00,25.7,23.2,30.08,East,101,1.0,2.0,90,0.00,,,0.00,Wunderground v.1.15,2013-02-09 08:50:00,
2013-02-09 02:55:00,25.8,23.3,30.08,WSW,253,1.0,2.0,90,0.00,,,0.00,Wunderground v.1.15,2013-02-09 08:55:00,
2013-02-09 03:00:00,25.8,23.3,30.07,WSW,248,1.0,4.0,90,0.00,,,0.00,Wunderground v.1.15,2013-02-09 09:00:00,
2013-02-09 03:06:00,25.8,23.3,30.07,South,174,2.0,5.0,90,0.00,,,0.00,Wunderground v.1.15,2013-02-09 09:06:00,
2013-02-09 03:11:00,25.8,23.3,30.08,West,267,2.0,3.0,90,0.00,,,0.00,Wunderground v.1.15,2013-02-09 09:11:00,
2013-02-09 03:16:00,25.8,23.3,30.07,SSW,204,2.0,3.0,90,0.00,,,0.00,Wunderground v.1.15,2013-02-09 09:16:00,
2013-02-09 03:21:00,25.8,23.3,30.07,SSW,203,2.0,4.0,90,0.00,,,0.00,Wunderground v.1.15,2013-02-09 09:21:00,
2013-02-09 03:26:00,25.8,23.3,30.06,WSW,237,2.0,4.0,90,0.00,,,0.00,Wunderground v.1.15,2013-02-09 09:26:00,
2013-02-09 03:31:00,25.8,23.3,30.06,West,262,1.0,2.0,90,0.00,,,0.00,Wunderground v.1.15,2013-02-09 09:31:00,
2013-02-09 03:36:00,25.8,23.3,30.06,SE,127,1.0,3.0,90,0.00,,,0.00,Wunderground v.1.15,2013-02-09 09:36:00,
2013-02-09 03:41:00,25.7,23.2,30.05,East,91,0.0,2.0,90,0.00,,,0.00,Wunderground v.1.15,2013-02-09 09:41:00,
2013-02-09 03:46:00,25.6,23.1,30.04,SW,224,1.0,2.0,90,0.00,,,0.00,Wunderground v.1.15,2013-02-09 09:46:00,
2013-02-09 03:51:00,25.7,23.2,30.04,SSE,149,1.0,1.0,90,0.00,,,0.00,Wunderground v.1.15,2013-02-09 09:51:00,
2013-02-09 03:57:00,25.6,23.1,30.04,SSW,210,2.0,5.0,90,0.00,,,0.00,Wunderground v.1.15,2013-02-09 09:57:00,
2013-02-09 04:02:00,25.6,23.1,30.04,WSW,248,2.0,2.0,90,0.00,,,0.00,Wunderground v.1.15,2013-02-09 10:02:00,
2013-02-09 04:07:00,25.6,23.1,30.04,ENE,64,1.0,3.0,90,0.00,,,0.00,Wunderground v.1.15,2013-02-09 10:07:00,
2013-02-09 04:12:00,25.5,23.0,30.04,NE,56,1.0,3.0,90,0.00,,,0.00,Wunderground v.1.15,2013-02-09 10:12:00,
2013-02-09 04:17:00,25.5,23.0,30.04,South,176,2.0,4.0,90,0.00,,,0.00,Wunderground v.1.15,2013-02-09 10:17:00,
2013-02-09 04:23:00,25.5,23.0,30.04,ESE,121,2.0,4.0,90,0.00,,,0.00,Wunderground v.1.15,2013-02-09 10:23:00,
2013-02-09 04:28:00,25.5,23.0,30.04,WSW,256,2.0,4.0,90,0.00,,,0.00,Wunderground v.1.15,2013-02-09 10:28:00,
2013-02-09 04:33:00,25.5,23.0,30.04,ESE,119,1.0,2.0,90,0.00,,,0.00,Wunderground v.1.15,2013-02-09 10:33:00,
2013-02-09 04:38:00,25.5,23.0,30.04,NNW,333,1.0,3.0,90,0.00,,,0.00,Wunderground v.1.15,2013-02-09 10:38:00,
2013-02-09 04:43:00,25.5,23.0,30.03,WSW,239,2.0,2.0,90,0.00,,,0.00,Wunderground v.1.15,2013-02-09 10:43:00,
2013-02-09 04:49:00,25.5,23.0,30.03,SW,224,2.0,2.0,90,0.00,,,0.00,Wunderground v.1.15,2013-02-09 10:49:00,
2013-02-09 04:54:00,25.5,23.0,30.03,SSW,207,2.0,2.0,90,0.00,,,0.00,Wunderground v.1.15,2013-02-09 10:54:00,
2013-02-09 04:59:00,25.5,23.0,30.03,WNW,290,2.0,3.0,90,0.00,,,0.00,Wunderground v.1.15,2013-02-09 10:59:00,
2013-02-09 05:04:00,25.6,23.1,30.03,SW,221,2.0,6.0,90,0.00,,,0.00,Wunderground v.1.15,2013-02-09 11:04:00,
2013-02-09 05:09:00,25.6,23.1,30.03,SSE,152,1.0,1.0,90,0.00,,,0.00,Wunderground v.1.15,2013-02-09 11:09:00,
2013-02-09 05:15:00,25.7,23.2,30.02,SE,135,1.0,7.0,90,0.00,,,0.00,Wunderground v.1.15,2013-02-09 11:15:00,
2013-02-09 05:20:00,25.7,23.2,30.02,NNE,29,1.0,2.0,90,0.00,,,0.00,Wunderground v.1.15,2013-02-09 11:20:00,
2013-02-09 05:25:00,25.7,23.2,30.03,NE,56,1.0,2.0,90,0.00,,,0.00,Wunderground v.1.15,2013-02-09 11:25:00,
2013-02-09 05:30:00,25.7,23.2,30.02,SSW,205,1.0,1.0,90,0.00,,,0.00,Wunderground v.1.15,2013-02-09 11:30:00,
2013-02-09 05:35:00,25.8,23.3,30.02,SW,219,2.0,4.0,90,0.00,,,0.00,Wunderground v.1.15,2013-02-09 11:35:00,
2013-02-09 05:41:00,25.8,23.3,30.02,ESE,109,1.0,1.0,90,0.00,,,0.00,Wunderground v.1.15,2013-02-09 11:41:00,
2013-02-09 05:46:00,25.8,23.3,30.01,NW,322,1.0,1.0,90,0.00,,,0.00,Wunderground v.1.15,2013-02-09 11:46:00,
2013-02-09 05:51:00,25.8,23.3,30.01,SW,222,1.0,2.0,90,0.00,,,0.00,Wunderground v.1.15,2013-02-09 11:51:00,
2013-02-09 05:56:00,25.8,23.3,30.01,ESE,123,1.0,2.0,90,0.00,,,0.00,Wunderground v.1.15,2013-02-09 11:56:00,
2013-02-09 06:01:00,25.8,23.3,30.01,SW,235,1.0,4.0,90,0.00,,,0.00,Wunderground v.1.15,2013-02-09 12:01:00,
2013-02-09 06:07:00,25.9,23.4,30.01,SSW,197,2.0,4.0,90,0.00,,,0.00,Wunderground v.1.15,2013-02-09 12:07:00,
2013-02-09 06:12:00,25.9,23.4,30.01,WSW,240,2.0,2.0,90,0.00,,,0.00,Wunderground v.1.15,2013-02-09 12:12:00,
2013-02-09 06:17:00,25.9,23.4,30.01,ENE,60,1.0,2.0,90,0.00,,,0.00,Wunderground v.1.15,2013-02-09 12:17:00,
2013-02-09 06:22:00,25.9,23.4,30.01,WSW,243,1.0,5.0,90,0.00,,,0.00,Wunderground v.1.15,2013-02-09 12:22:00,
2013-02-09 06:27:00,25.9,23.4,30.01,SSW,212,1.0,5.0,90,0.00,,,0.00,Wunderground v.1.15,2013-02-09 12:27:00,
2013-02-09 06:32:00,25.9,23.6,30.01,WSW,255,1.0,1.0,91,0.00,,,0.00,Wunderground v.1.15,2013-02-09 12:32:00,
2013-02-09 06:38:00,26.0,23.7,30.00,SSW,207,1.0,3.0,91,0.00,,,0.00,Wunderground v.1.15,2013-02-09 12:38:00,
2013-02-09 06:43:00,26.0,23.7,30.00,WSW,250,1.0,2.0,91,0.00,,,0.00,Wunderground v.1.15,2013-02-09 12:43:00,
2013-02-09 06:48:00,26.0,23.7,30.00,SE,134,1.0,3.0,91,0.00,,,0.00,Wunderground v.1.15,2013-02-09 12:48:00,
2013-02-09 06:53:00,26.1,23.8,30.00,WSW,248,1.0,1.0,91,0.00,,,0.00,Wunderground v.1.15,2013-02-09 12:53:00,
2013-02-09 06:58:00,26.1,23.8,30.00,SW,225,1.0,3.0,91,0.00,,,0.00,Wunderground v.1.15,2013-02-09 12:58:00,
2013-02-09 07:04:00,26.1,23.8,30.00,SE,146,1.0,3.0,91,0.00,,,0.00,Wunderground v.1.15,2013-02-09 13:04:00,
2013-02-09 07:09:00,26.1,23.6,30.00,SSW,200,2.0,4.0,90,0.00,,,0.00,Wunderground v.1.15,2013-02-09 13:09:00,
2013-02-09 07:14:00,26.2,23.7,30.00,West,273,2.0,3.0,90,0.00,,,0.00,Wunderground v.1.15,2013-02-09 13:14:00,
2013-02-09 07:19:00,26.2,23.7,30.00,SSE,163,1.0,3.0,90,0.00,,,0.00,Wunderground v.1.15,2013-02-09 13:19:00,
2013-02-09 07:24:00,26.2,23.7,30.00,WSW,257,1.0,6.0,90,0.00,,,0.00,Wunderground v.1.15,2013-02-09 13:24:00,
2013-02-09 07:30:00,26.3,23.8,30.00,SW,225,1.0,4.0,90,0.00,,,0.00,Wunderground v.1.15,2013-02-09 13:30:00,
2013-02-09 07:35:00,26.3,23.8,30.00,West,280,1.0,4.0,90,0.00,,,0.00,Wunderground v.1.15,2013-02-09 13:35:00,
2013-02-09 07:40:00,26.3,23.8,30.00,SSE,149,1.0,1.0,90,0.00,,,0.00,Wunderground v.1.15,2013-02-09 13:40:00,
2013-02-09 07:45:00,26.4,23.9,30.00,WNW,293,1.0,4.0,90,0.00,,,0.00,Wunderground v.1.15,2013-02-09 13:45:00,
2013-02-09 07:50:00,26.5,24.0,30.00,West,263,1.0,1.0,90,0.00,,,0.00,Wunderground v.1.15,2013-02-09 13:50:00,
2013-02-09 07:55:00,26.5,24.0,30.00,WSW,239,1.0,5.0,90,0.00,,,0.00,Wunderground v.1.15,2013-02-09 13:55:00,
2013-02-09 08:00:00,26.5,24.0,30.00,SSW,205,2.0,2.0,90,0.00,,,0.00,Wunderground v.1.15,2013-02-09 14:00:00,
2013-02-09 08:05:00,26.6,24.1,30.00,West,263,1.0,3.0,90,0.00,,,0.00,Wunderground v.1.15,2013-02-09 14:05:00,
2013-02-09 08:10:00,26.6,24.1,30.00,WSW,239,2.0,3.0,90,0.00,,,0.00,Wunderground v.1.15,2013-02-09 14:10:00,
2013-02-09 08:15:00,26.7,24.2,30.00,West,269,2.0,3.0,90,0.00,,,0.00,Wunderground v.1.15,2013-02-09 14:15:00,
2013-02-09 08:20:00,26.7,24.2,30.00,East,86,2.0,2.0,90,0.00,,,0.00,Wunderground v.1.15,2013-02-09 14:20:00,
2013-02-09 08:26:00,26.9,24.1,30.00,SE,143,2.0,5.0,89,0.00,,,0.00,Wunderground v.1.15,2013-02-09 14:26:00,
2013-02-09 08:31:00,26.9,24.1,30.00,WNW,295,2.0,2.0,89,0.00,,,0.00,Wunderground v.1.15,2013-02-09 14:31:00,
2013-02-09 08:36:00,26.9,24.1,30.00,WSW,249,2.0,2.0,89,0.00,,,0.00,Wunderground v.1.15,2013-02-09 14:36:00,
2013-02-09 08:41:00,27.0,24.2,30.00,South,188,1.0,1.0,89,0.00,,,0.00,Wunderground v.1.15,2013-02-09 14:41:00,
2013-02-09 08:46:00,27.0,24.2,30.00,WSW,249,1.0,1.0,89,0.00,,,0.00,Wunderground v.1.15,2013-02-09 14:46:00,
2013-02-09 08:52:00,27.1,24.3,30.00,WSW,240,2.0,3.0,89,0.00,,,0.00,Wunderground v.1.15,2013-02-09 14:52:00,
2013-02-09 08:57:00,27.2,24.4,30.00,WNW,285,2.0,3.0,89,0.00,,,0.00,Wunderground v.1.15,2013-02-09 14:57:00,
2013-02-09 09:02:00,27.2,24.4,30.00,SW,225,2.0,2.0,89,0.00,,,0.00,Wunderground v.1.15,2013-02-09 15:02:00,
2013-02-09 09:07:00,27.2,24.4,30.00,South,184,2.0,2.0,89,0.00,,,0.00,Wunderground v.1.15,2013-02-09 15:07:00,
2013-02-09 09:12:00,27.2,24.4,30.00,SE,132,2.0,5.0,89,0.00,,,0.00,Wunderground v.1.15,2013-02-09 15:12:00,
2013-02-09 09:17:00,27.3,24.5,30.00,West,269,2.0,5.0,89,0.00,,,0.00,Wunderground v.1.15,2013-02-09 15:17:00,
2013-02-09 09:22:00,27.3,24.5,30.00,West,262,1.0,2.0,89,0.00,,,0.00,Wunderground v.1.15,2013-02-09 15:22:00,
2013-02-09 09:27:00,27.4,24.6,30.00,WSW,255,2.0,4.0,89,0.00,,,0.00,Wunderground v.1.15,2013-02-09 15:27:00,
2013-02-09 09:32:00,27.5,24.7,30.00,SW,224,2.0,4.0,89,0.00,,,0.00,Wunderground v.1.15,2013-02-09 15:32:00,
2013-02-09 09:37:00,27.5,24.7,30.00,WSW,256,2.0,4.0,89,0.00,,,0.00,Wunderground v.1.15,2013-02-09 15:37:00,
2013-02-09 09:43:00,27.6,24.8,29.99,WSW,253,2.0,3.0,89,0.00,,,0.00,Wunderground v.1.15,2013-02-09 15:43:00,
2013-02-09 09:48:00,27.7,24.6,29.99,SSE,147,2.0,4.0,88,0.00,,,0.00,Wunderground v.1.15,2013-02-09 15:48:00,
2013-02-09 09:53:00,27.8,24.7,29.99,SW,232,2.0,6.0,88,0.00,,,0.00,Wunderground v.1.15,2013-02-09 15:53:00,
2013-02-09 09:58:00,27.9,24.8,29.99,SSW,211,2.0,6.0,88,0.00,,,0.00,Wunderground v.1.15,2013-02-09 15:58:00,
2013-02-09 10:03:00,28.0,24.9,29.99,WSW,257,2.0,4.0,88,0.00,,,0.00,Wunderground v.1.15,2013-02-09 16:03:00,
2013-02-09 10:09:00,28.1,25.0,29.99,ESE,105,2.0,2.0,88,0.00,,,0.00,Wunderground v.1.15,2013-02-09 16:09:00,
2013-02-09 10:14:00,28.2,25.1,29.99,SSW,204,2.0,3.0,88,0.00,,,0.00,Wunderground v.1.15,2013-02-09 16:14:00,
2013-02-09 10:19:00,28.2,25.1,29.99,WSW,248,1.0,1.0,88,0.00,,,0.00,Wunderground v.1.15,2013-02-09 16:19:00,
2013-02-09 10:24:00,28.4,25.0,29.99,SSW,212,1.0,3.0,87,0.00,,,0.00,Wunderground v.1.15,2013-02-09 16:24:00,
2013-02-09 10:29:00,28.5,25.1,29.99,West,259,2.0,2.0,87,0.00,,,0.00,Wunderground v.1.15,2013-02-09 16:29:00,
2013-02-09 10:35:00,28.6,25.2,29.99,SSE,152,2.0,4.0,87,0.00,,,0.00,Wunderground v.1.15,2013-02-09 16:35:00,
2013-02-09 10:40:00,28.9,25.5,29.99,ESE,110,1.0,1.0,87,0.00,,,0.00,Wunderground v.1.15,2013-02-09 16:40:00,
2013-02-09 10:45:00,29.0,25.6,29.99,WSW,248,1.0,4.0,87,0.00,,,0.00,Wunderground v.1.15,2013-02-09 16:45:00,
2013-02-09 10:50:00,29.1,25.4,29.99,West,263,1.0,4.0,86,0.00,,,0.00,Wunderground v.1.15,2013-02-09 16:50:00,
2013-02-09 10:55:00,29.1,25.4,29.99,SW,226,2.0,4.0,86,0.00,,,0.00,Wunderground v.1.15,2013-02-09 16:55:00,
2013-02-09 11:01:00,29.2,25.5,29.99,WSW,252,2.0,3.0,86,0.00,,,0.00,Wunderground v.1.15,2013-02-09 17:01:00,
2013-02-09 11:06:00,29.3,25.6,29.99,West,263,2.0,4.0,86,0.00,,,0.00,Wunderground v.1.15,2013-02-09 17:06:00,
2013-02-09 11:11:00,29.5,25.8,29.99,NW,312,2.0,2.0,86,0.00,,,0.00,Wunderground v.1.15,2013-02-09 17:11:00,
2013-02-09 11:16:00,29.6,25.9,29.99,SSW,198,2.0,2.0,86,0.00,,,0.00,Wunderground v.1.15,2013-02-09 17:16:00,
2013-02-09 11:21:00,29.8,26.1,29.99,SSW,207,1.0,1.0,86,0.00,,,0.00,Wunderground v.1.15,2013-02-09 17:21:00,
2013-02-09 11:26:00,30.0,26.3,29.99,SW,215,1.0,3.0,86,0.00,,,0.00,Wunderground v.1.15,2013-02-09 17:26:00,
2013-02-09 11:32:00,30.1,26.4,29.99,WSW,238,1.0,4.0,86,0.00,,,0.00,Wunderground v.1.15,2013-02-09 17:32:00,
2013-02-09 11:37:00,30.2,26.2,29.98,WSW,250,2.0,4.0,85,0.00,,,0.00,Wunderground v.1.15,2013-02-09 17:37:00,
2013-02-09 11:42:00,30.3,26.3,29.98,SSW,201,1.0,2.0,85,0.00,,,0.00,Wunderground v.1.15,2013-02-09 17:42:00,
2013-02-09 11:47:00,30.4,26.4,29.98,West,273,1.0,4.0,85,0.00,,,0.00,Wunderground v.1.15,2013-02-09 17:47:00,
2013-02-09 11:52:00,30.4,26.4,29.98,SW,229,1.0,2.0,85,0.00,,,0.00,Wunderground v.1.15,2013-02-09 17:52:00,
2013-02-09 11:58:00,30.6,26.6,29.97,SW,232,1.0,3.0,85,0.00,,,0.00,Wunderground v.1.15,2013-02-09 17:58:00,
2013-02-09 12:03:00,30.7,26.7,29.97,WSW,257,1.0,3.0,85,0.00,,,0.00,Wunderground v.1.15,2013-02-09 18:03:00,
2013-02-09 12:08:00,30.7,26.7,29.97,SSE,159,2.0,4.0,85,0.00,,,0.00,Wunderground v.1.15,2013-02-09 18:08:00,
2013-02-09 12:13:00,30.8,26.8,29.96,West,277,2.0,2.0,85,0.00,,,0.00,Wunderground v.1.15,2013-02-09 18:13:00,
2013-02-09 12:18:00,30.8,27.1,29.96,SW,236,1.0,6.0,86,0.00,,,0.00,Wunderground v.1.15,2013-02-09 18:18:00,
2013-02-09 12:24:00,30.9,27.2,29.96,SSE,151,2.0,3.0,86,0.00,,,0.00,Wunderground v.1.15,2013-02-09 18:24:00,
2013-02-09 12:29:00,31.0,27.3,29.95,West,267,1.0,3.0,86,0.00,,,0.00,Wunderground v.1.15,2013-02-09 18:29:00,
2013-02-09 12:34:00,31.1,27.1,29.95,SW,223,1.0,2.0,85,0.00,,,0.00,Wunderground v.1.15,2013-02-09 18:34:00,
2013-02-09 12:39:00,31.2,27.2,29.95,WSW,242,1.0,4.0,85,0.00,,,0.00,Wunderground v.1.15,2013-02-09 18:39:00,
2013-02-09 12:44:00,31.3,27.3,29.95,WSW,243,1.0,2.0,85,0.00,,,0.00,Wunderground v.1.15,2013-02-09 18:44:00,
2013-02-09 12:50:00,31.3,27.6,29.94,WSW,248,1.0,1.0,86,0.00,,,0.00,Wunderground v.1.15,2013-02-09 18:50:00,
2013-02-09 12:55:00,31.5,27.8,29.94,West,260,1.0,4.0,86,0.00,,,0.00,Wunderground v.1.15,2013-02-09 18:55:00,
2013-02-09 13:00:00,31.8,28.1,29.94,West,271,1.0,1.0,86,0.00,,,0.00,Wunderground v.1.15,2013-02-09 19:00:00,
2013-02-09 13:05:00,32.0,28.0,29.94,West,264,1.0,3.0,85,0.00,,,0.00,Wunderground v.1.15,2013-02-09 19:05:00,
2013-02-09 13:10:00,32.0,28.0,29.93,WNW,284,1.0,1.0,85,0.00,,,0.00,Wunderground v.1.15,2013-02-09 19:10:00,
2013-02-09 13:15:00,32.2,28.2,29.93,WSW,239,1.0,4.0,85,0.00,,,0.00,Wunderground v.1.15,2013-02-09 19:15:00,
2013-02-09 13:20:00,32.2,28.2,29.93,WSW,242,1.0,2.0,85,0.00,,,0.00,Wunderground v.1.15,2013-02-09 19:20:00,
2013-02-09 13:25:00,32.1,28.1,29.92,WSW,238,2.0,5.0,85,0.00,,,0.00,Wunderground v.1.15,2013-02-09 19:25:00,
2013-02-09 13:30:00,32.2,28.2,29.92,SE,137,1.0,1.0,85,0.00,,,0.00,Wunderground v.1.15,2013-02-09 19:30:00,
2013-02-09 13:35:00,32.4,28.4,29.92,West,266,1.0,2.0,85,0.00,,,0.00,Wunderground v.1.15,2013-02-09 19:35:00,
2013-02-09 13:40:00,32.5,28.5,29.92,SW,229,1.0,3.0,85,0.00,,,0.00,Wunderground v.1.15,2013-02-09 19:40:00,
2013-02-09 13:45:00,32.5,28.5,29.92,SW,230,0.0,3.0,85,0.00,,,0.00,Wunderground v.1.15,2013-02-09 19:45:00,
2013-02-09 13:51:00,32.7,28.4,29.91,SSW,201,1.0,2.0,84,0.00,,,0.00,Wunderground v.1.15,2013-02-09 19:51:00,
2013-02-09 13:56:00,32.7,28.4,29.91,South,174,1.0,2.0,84,0.00,,,0.00,Wunderground v.1.15,2013-02-09 19:56:00,
2013-02-09 14:01:00,32.7,28.7,29.91,West,263,1.0,1.0,85,0.00,,,0.00,Wunderground v.1.15,2013-02-09 20:01:00,
2013-02-09 14:06:00,32.8,28.8,29.91,ESE,122,0.0,2.0,85,0.00,,,0.00,Wunderground v.1.15,2013-02-09 20:06:00,
2013-02-09 14:11:00,32.8,28.8,29.90,WSW,242,1.0,1.0,85,0.00,,,0.00,Wunderground v.1.15,2013-02-09 20:11:00,
2013-02-09 14:17:00,32.7,28.7,29.90,West,276,1.0,3.0,85,0.00,,,0.00,Wunderground v.1.15,2013-02-09 20:17:00,
2013-02-09 14:22:00,32.6,28.6,29.90,SW,214,1.0,1.0,85,0.00,,,0.00,Wunderground v.1.15,2013-02-09 20:22:00,
2013-02-09 14:27:00,32.6,28.9,29.90,SSW,211,1.0,2.0,86,0.00,,,0.00,Wunderground v.1.15,2013-02-09 20:27:00,
2013-02-09 14:32:00,32.7,28.7,29.89,WSW,239,1.0,1.0,85,0.00,,,0.00,Wunderground v.1.15,2013-02-09 20:32:00,
2013-02-09 14:37:00,32.8,28.8,29.89,SSW,193,1.0,2.0,85,0.00,,,0.00,Wunderground v.1.15,2013-02-09 20:37:00,
2013-02-09 14:43:00,32.8,28.8,29.89,West,274,1.0,2.0,85,0.00,,,0.00,Wunderground v.1.15,2013-02-09 20:43:00,
2013-02-09 14:48:00,32.8,29.1,29.89,SE,128,1.0,3.0,86,0.00,,,0.00,Wunderground v.1.15,2013-02-09 20:48:00,
2013-02-09 14:53:00,32.8,29.1,29.89,WSW,249,1.0,2.0,86,0.00,,,0.00,Wunderground v.1.15,2013-02-09 20:53:00,
2013-02-09 14:58:00,32.9,29.2,29.88,NNW,333,1.0,2.0,86,0.00,,,0.00,Wunderground v.1.15,2013-02-09 20:58:00,
2013-02-09 15:03:00,32.9,29.2,29.88,SE,142,1.0,3.0,86,0.00,,,0.00,Wunderground v.1.15,2013-02-09 21:03:00,
2013-02-09 15:09:00,32.9,29.2,29.88,West,274,0.0,3.0,86,0.00,,,0.00,Wunderground v.1.15,2013-02-09 21:09:00,
2013-02-09 15:14:00,32.8,29.1,29.88,ESE,105,1.0,2.0,86,0.00,,,0.00,Wunderground v.1.15,2013-02-09 21:14:00,
2013-02-09 15:19:00,32.7,29.0,29.88,SW,214,1.0,2.0,86,0.00,,,0.00,Wunderground v.1.15,2013-02-09 21:19:00,
2013-02-09 15:24:00,32.7,29.0,29.88,SW,228,0.0,2.0,86,0.00,,,0.00,Wunderground v.1.15,2013-02-09 21:24:00,
2013-02-09 15:29:00,32.6,29.2,29.88,ESE,120,1.0,2.0,87,0.00,,,0.00,Wunderground v.1.15,2013-02-09 21:29:00,
2013-02-09 15:34:00,32.5,29.1,29.88,ESE,122,0.0,2.0,87,0.00,,,0.00,Wunderground v.1.15,2013-02-09 21:34:00,
2013-02-09 15:39:00,32.4,29.0,29.88,NW,314,1.0,1.0,87,0.00,,,0.00,Wunderground v.1.15,2013-02-09 21:39:00,
2013-02-09 15:45:00,32.3,29.1,29.88,SSW,210,1.0,4.0,88,0.00,,,0.00,Wunderground v.1.15,2013-02-09 21:45:00,
2013-02-09 15:50:00,32.3,29.1,29.88,SSE,161,1.0,1.0,88,0.00,,,0.00,Wunderground v.1.15,2013-02-09 21:50:00,
2013-02-09 15:55:00,32.2,29.0,29.88,ESE,120,1.0,1.0,88,0.00,,,0.00,Wunderground v.1.15,2013-02-09 21:55:00,
2013-02-09 16:00:00,32.2,29.0,29.87,SSW,203,0.0,1.0,88,0.00,,,0.00,Wunderground v.1.15,2013-02-09 22:00:00,
2013-02-09 16:05:00,32.2,29.3,29.87,ESE,110,1.0,1.0,89,0.00,,,0.00,Wunderground v.1.15,2013-02-09 22:05:00,
2013-02-09 16:10:00,32.1,29.2,29.87,ESE,105,1.0,1.0,89,0.00,,,0.00,Wunderground v.1.15,2013-02-09 22:10:00,
2013-02-09 16:16:00,32.1,29.2,29.87,SSE,158,1.0,2.0,89,0.00,,,0.00,Wunderground v.1.15,2013-02-09 22:16:00,
2013-02-09 16:21:00,32.0,29.1,29.87,West,269,1.0,1.0,89,0.00,,,0.00,Wunderground v.1.15,2013-02-09 22:21:00,
2013-02-09 16:26:00,32.1,29.2,29.86,SE,131,0.0,1.0,89,0.00,,,0.00,Wunderground v.1.15,2013-02-09 22:26:00,
2013-02-09 16:32:00,32.0,29.1,29.86,West,281,1.0,5.0,89,0.00,,,0.00,Wunderground v.1.15,2013-02-09 22:32:00,
2013-02-09 16:37:00,31.8,28.9,29.86,SW,226,1.0,5.0,89,0.00,,,0.00,Wunderground v.1.15,2013-02-09 22:37:00,
2013-02-09 16:42:00,31.7,29.1,29.86,West,271,1.0,1.0,90,0.00,,,0.00,Wunderground v.1.15,2013-02-09 22:42:00,
2013-02-09 16:47:00,31.7,29.1,29.86,West,265,1.0,2.0,90,0.00,,,0.00,Wunderground v.1.15,2013-02-09 22:47:00,
2013-02-09 16:53:00,31.6,29.0,29.86,WSW,255,1.0,4.0,90,0.00,,,0.00,Wunderground v.1.15,2013-02-09 22:53:00,
2013-02-09 16:58:00,31.6,29.0,29.86,East,87,1.0,4.0,90,0.00,,,0.00,Wunderground v.1.15,2013-02-09 22:58:00,
2013-02-09 17:03:00,31.5,28.9,29.86,SE,125,1.0,2.0,90,0.00,,,0.00,Wunderground v.1.15,2013-02-09 23:03:00,
2013-02-09 17:08:00,31.5,28.9,29.86,South,173,1.0,2.0,90,0.00,,,0.00,Wunderground v.1.15,2013-02-09 23:08:00,
2013-02-09 17:13:00,31.4,28.8,29.86,SSW,194,0.0,1.0,90,0.00,,,0.00,Wunderground v.1.15,2013-02-09 23:13:00,
2013-02-09 17:19:00,31.4,28.8,29.85,West,269,0.0,2.0,90,0.00,,,0.00,Wunderground v.1.15,2013-02-09 23:19:00,
2013-02-09 17:24:00,31.4,28.8,29.85,WSW,248,0.0,1.0,90,0.00,,,0.00,Wunderground v.1.15,2013-02-09 23:24:00,
2013-02-09 17:29:00,31.3,28.7,29.85,WSW,255,0.0,1.0,90,0.00,,,0.00,Wunderground v.1.15,2013-02-09 23:29:00,
2013-02-09 17:34:00,31.3,28.7,29.85,SSW,205,0.0,1.0,90,0.00,,,0.00,Wunderground v.1.15,2013-02-09 23:34:00,
2013-02-09 17:39:00,31.3,29.0,29.85,WNW,292,0.0,3.0,91,0.00,,,0.00,Wunderground v.1.15,2013-02-09 23:39:00,
2013-02-09 17:45:00,31.2,28.9,29.85,SE,134,1.0,2.0,91,0.00,,,0.00,Wunderground v.1.15,2013-02-09 23:45:00,
2013-02-09 17:50:00,31.2,28.9,29.84,South,174,1.0,1.0,91,0.00,,,0.00,Wunderground v.1.15,2013-02-09 23:50:00,
2013-02-09 17:55:00,31.2,28.9,29.84,West,271,0.0,1.0,91,0.00,,,0.00,Wunderground v.1.15,2013-02-09 23:55:00,
2013-02-09 18:00:00,31.1,28.8,29.84,NE,53,0.0,3.0,91,0.00,,,0.00,Wunderground v.1.15,2013-02-10 00:00:00,
2013-02-09 18:05:00,31.1,28.8,29.85,NW,316,0.0,3.0,91,0.00,,,0.00,Wunderground v.1.15,2013-02-10 00:05:00,
2013-02-09 18:11:00,31.0,28.7,29.85,ESE,110,1.0,1.0,91,0.00,,,0.00,Wunderground v.1.15,2013-02-10 00:11:00,
2013-02-09 18:16:00,31.0,28.7,29.85,NNW,345,1.0,2.0,91,0.00,,,0.00,Wunderground v.1.15,2013-02-10 00:16:00,
2013-02-09 18:21:00,31.0,28.7,29.85,West,281,0.0,1.0,91,0.00,,,0.00,Wunderground v.1.15,2013-02-10 00:21:00,
2013-02-09 18:26:00,30.9,28.6,29.85,South,169,0.0,1.0,91,0.00,,,0.00,Wunderground v.1.15,2013-02-10 00:26:00,
2013-02-09 18:31:00,30.8,28.5,29.85,NW,314,0.0,1.0,91,0.00,,,0.00,Wunderground v.1.15,2013-02-10 00:31:00,
2013-02-09 18:37:00,30.7,28.7,29.85,ESE,122,0.0,2.0,92,0.00,,,0.00,Wunderground v.1.15,2013-02-10 00:37:00,
2013-02-09 18:42:00,30.6,28.6,29.85,North,6,0.0,1.0,92,0.00,,,0.00,Wunderground v.1.15,2013-02-10 00:42:00,
2013-02-09 18:47:00,30.6,28.6,29.85,WSW,253,0.0,1.0,92,0.00,,,0.00,Wunderground v.1.15,2013-02-10 00:47:00,
2013-02-09 18:52:00,30.5,28.5,29.85,East,101,0.0,1.0,92,0.00,,,0.00,Wunderground v.1.15,2013-02-10 00:52:00,
2013-02-09 18:57:00,30.4,28.4,29.85,NNE,14,1.0,2.0,92,0.00,,,0.00,Wunderground v.1.15,2013-02-10 00:57:00,
2013-02-09 19:03:00,30.3,28.3,29.85,WNW,283,1.0,1.0,92,0.00,,,0.00,Wunderground v.1.15,2013-02-10 01:03:00,
2013-02-09 19:08:00,30.2,28.2,29.85,SE,136,1.0,2.0,92,0.00,,,0.00,Wunderground v.1.15,2013-02-10 01:08:00,
2013-02-09 19:13:00,30.1,28.1,29.86,NNE,12,0.0,1.0,92,0.00,,,0.00,Wunderground v.1.15,2013-02-10 01:13:00,
2013-02-09 19:18:00,30.0,28.0,29.86,ESE,115,1.0,2.0,92,0.00,,,0.00,Wunderground v.1.15,2013-02-10 01:18:00,
2013-02-09 19:23:00,29.9,28.1,29.86,SE,145,1.0,1.0,93,0.00,,,0.00,Wunderground v.1.15,2013-02-10 01:23:00,
2013-02-09 19:29:00,29.7,27.9,29.86,NE,54,0.0,2.0,93,0.00,,,0.00,Wunderground v.1.15,2013-02-10 01:29:00,
2013-02-09 19:34:00,29.6,27.8,29.86,ESE,115,0.0,1.0,93,0.00,,,0.00,Wunderground v.1.15,2013-02-10 01:34:00,
2013-02-09 19:39:00,29.6,27.8,29.85,NNE,13,0.0,1.0,93,0.00,,,0.00,Wunderground v.1.15,2013-02-10 01:39:00,
2013-02-09 19:44:00,29.5,27.7,29.85,NNW,330,0.0,1.0,93,0.00,,,0.00,Wunderground v.1.15,2013-02-10 01:44:00,
2013-02-09 19:49:00,29.4,27.6,29.85,SE,134,1.0,3.0,93,0.00,,,0.00,Wunderground v.1.15,2013-02-10 01:49:00,
2013-02-09 19:55:00,29.3,27.5,29.85,ESE,107,1.0,1.0,93,0.00,,,0.00,Wunderground v.1.15,2013-02-10 01:55:00,
2013-02-09 20:00:00,29.3,27.5,29.84,WSW,252,1.0,1.0,93,0.00,,,0.00,Wunderground v.1.15,2013-02-10 02:00:00,
2013-02-09 20:05:00,29.2,27.4,29.84,ESE,117,1.0,1.0,93,0.00,,,0.00,Wunderground v.1.15,2013-02-10 02:05:00,
2013-02-09 20:10:00,29.2,27.4,29.84,ESE,115,0.0,1.0,93,0.00,,,0.00,Wunderground v.1.15,2013-02-10 02:10:00,
2013-02-09 20:15:00,29.2,27.4,29.84,South,174,0.0,1.0,93,0.00,,,0.00,Wunderground v.1.15,2013-02-10 02:15:00,
2013-02-09 20:21:00,29.1,27.3,29.84,West,264,0.0,3.0,93,0.00,,,0.00,Wunderground v.1.15,2013-02-10 02:21:00,
2013-02-09 20:26:00,29.1,27.3,29.84,WSW,242,1.0,3.0,93,0.00,,,0.00,Wunderground v.1.15,2013-02-10 02:26:00,
2013-02-09 20:31:00,29.1,27.3,29.84,ESE,122,1.0,1.0,93,0.00,,,0.00,Wunderground v.1.15,2013-02-10 02:31:00,
2013-02-09 20:36:00,29.0,27.2,29.84,NE,44,1.0,2.0,93,0.00,,,0.00,Wunderground v.1.15,2013-02-10 02:36:00,
2013-02-09 20:41:00,29.0,27.2,29.83,SSW,195,1.0,1.0,93,0.00,,,0.00,Wunderground v.1.15,2013-02-10 02:41:00,
2013-02-09 20:47:00,29.0,27.2,29.83,NNE,23,1.0,1.0,93,0.00,,,0.00,Wunderground v.1.15,2013-02-10 02:47:00,
2013-02-09 20:52:00,29.0,27.2,29.84,SW,215,1.0,2.0,93,0.00,,,0.00,Wunderground v.1.15,2013-02-10 02:52:00,
2013-02-09 20:57:00,29.0,27.2,29.84,SSW,200,1.0,2.0,93,0.00,,,0.00,Wunderground v.1.15,2013-02-10 02:57:00,
2013-02-09 21:02:00,29.0,27.2,29.84,West,266,1.0,1.0,93,0.00,,,0.00,Wunderground v.1.15,2013-02-10 03:02:00,
2013-02-09 21:07:00,29.0,27.2,29.84,NNE,13,0.0,3.0,93,0.00,,,0.00,Wunderground v.1.15,2013-02-10 03:07:00,
2013-02-09 21:13:00,29.0,27.2,29.85,South,172,0.0,1.0,93,0.00,,,0.00,Wunderground v.1.15,2013-02-10 03:13:00,
2013-02-09 21:18:00,29.0,27.2,29.85,West,267,1.0,3.0,93,0.00,,,0.00,Wunderground v.1.15,2013-02-10 03:18:00,
2013-02-09 21:23:00,29.0,27.2,29.84,North,349,1.0,1.0,93,0.00,,,0.00,Wunderground v.1.15,2013-02-10 03:23:00,
2013-02-09 21:28:00,29.0,27.2,29.84,East,99,0.0,3.0,93,0.00,,,0.00,Wunderground v.1.15,2013-02-10 03:28:00,
2013-02-09 21:33:00,28.9,27.1,29.84,North,5,1.0,2.0,93,0.00,,,0.00,Wunderground v.1.15,2013-02-10 03:33:00,
2013-02-09 21:39:00,28.9,27.1,29.83,NE,35,1.0,2.0,93,0.00,,,0.00,Wunderground v.1.15,2013-02-10 03:39:00,
2013-02-09 21:44:00,28.9,27.1,29.83,SSW,207,1.0,1.0,93,0.00,,,0.00,Wunderground v.1.15,2013-02-10 03:44:00,
2013-02-09 21:49:00,28.9,27.1,29.84,SE,127,1.0,1.0,93,0.00,,,0.00,Wunderground v.1.15,2013-02-10 03:49:00,
2013-02-09 21:54:00,28.8,26.8,29.84,North,353,1.0,4.0,92,0.00,,,0.00,Wunderground v.1.15,2013-02-10 03:54:00,
2013-02-09 21:59:00,28.8,26.8,29.84,West,259,1.0,4.0,92,0.00,,,0.00,Wunderground v.1.15,2013-02-10 03:59:00,
2013-02-09 22:05:00,28.8,26.8,29.85,WSW,252,2.0,4.0,92,0.00,,,0.00,Wunderground v.1.15,2013-02-10 04:05:00,
2013-02-09 22:10:00,28.8,26.8,29.85,NNW,345,1.0,1.0,92,0.00,,,0.00,Wunderground v.1.15,2013-02-10 04:10:00,
2013-02-09 22:15:00,28.8,26.8,29.84,WSW,242,1.0,1.0,92,0.00,,,0.00,Wunderground v.1.15,2013-02-10 04:15:00,
2013-02-09 22:20:00,28.8,26.8,29.85,West,279,1.0,1.0,92,0.00,,,0.00,Wunderground v.1.15,2013-02-10 04:20:00,
2013-02-09 22:25:00,28.8,26.8,29.84,SE,139,0.0,2.0,92,0.00,,,0.00,Wunderground v.1.15,2013-02-10 04:25:00,
2013-02-09 22:31:00,28.8,26.8,29.84,SE,127,1.0,1.0,92,0.00,,,0.00,Wunderground v.1.15,2013-02-10 04:31:00,
2013-02-09 22:36:00,28.8,26.8,29.84,SSW,194,0.0,1.0,92,0.00,,,0.00,Wunderground v.1.15,2013-02-10 04:36:00,
2013-02-09 22:41:00,28.8,26.8,29.84,SE,143,0.0,1.0,92,0.00,,,0.00,Wunderground v.1.15,2013-02-10 04:41:00,
2013-02-09 22:46:00,28.8,26.8,29.84,NE,55,0.0,1.0,92,0.00,,,0.00,Wunderground v.1.15,2013-02-10 04:46:00,
2013-02-09 22:51:00,28.7,26.7,29.83,ESE,108,0.0,1.0,92,0.00,,,0.00,Wunderground v.1.15,2013-02-10 04:51:00,
2013-02-09 22:57:00,28.7,26.7,29.83,SW,219,0.0,1.0,92,0.00,,,0.00,Wunderground v.1.15,2013-02-10 04:57:00,
2013-02-09 23:00:00,28.6,26.6,29.84,SW,221,0.0,1.0,92,0.00,,,0.00,Wunderground v.1.15,2013-02-10 05:00:00,
2013-02-09 23:02:00,28.6,26.6,29.84,ENE,74,0.0,1.0,92,0.00,,,0.00,Wunderground v.1.15,2013-02-10 05:02:00,
2013-02-09 23:03:00,28.6,26.6,29.84,ENE,73,0.0,1.0,92,0.00,,,0.00,Wunderground v.1.15,2013-02-10 05:03:00,
2013-02-09 23:04:00,28.6,26.6,29.84,SSW,212,0.0,1.0,92,0.00,,,0.00,Wunderground v.1.15,2013-02-10 05:04:00,
2013-02-09 23:10:00,28.5,26.2,29.83,SSE,158,0.0,1.0,91,0.00,,,0.00,Wunderground v.1.15,2013-02-10 05:10:00,
2013-02-09 23:15:00,28.4,26.1,29.83,WSW,256,1.0,2.0,91,0.00,,,0.00,Wunderground v.1.15,2013-02-10 05:15:00,
2013-02-09 23:20:00,28.4,26.1,29.82,East,92,1.0,1.0,91,0.00,,,0.00,Wunderground v.1.15,2013-02-10 05:20:00,
2013-02-09 23:25:00,28.4,26.1,29.82,SE,125,1.0,1.0,91,0.00,,,0.00,Wunderground v.1.15,2013-02-10 05:25:00,
2013-02-09 23:30:00,28.3,26.0,29.82,SE,143,0.0,1.0,91,0.00,,,0.00,Wunderground v.1.15,2013-02-10 05:30:00,
2013-02-09 23:36:00,28.3,26.0,29.82,ESE,105,1.0,5.0,91,0.00,,,0.00,Wunderground v.1.15,2013-02-10 05:36:00,
2013-02-09 23:41:00,28.3,26.0,29.82,NNE,31,1.0,1.0,91,0.00,,,0.00,Wunderground v.1.15,2013-02-10 05:41:00,
2013-02-09 23:46:00,28.3,26.0,29.82,WSW,250,0.0,2.0,91,0.00,,,0.00,Wunderground v.1.15,2013-02-10 05:46:00,
2013-02-09 23:51:00,28.3,26.0,29.82,ESE,104,1.0,1.0,91,0.00,,,0.00,Wunderground v.1.15,2013-02-10 05:51:00,
2013-02-09 23:56:00,28.2,25.9,29.81,ESE,103,1.0,1.0,91,0.00,,,0.00,Wunderground v.1.15,2013-02-10 05:56:00,